Lobo

Go HERE for most recent data if this page is not up to date.

Jump to table bottom
Date/Time Temp deg F RH % 24 Hr Snow (in) Snow Depth (in) H2O (in)
07/23 14:00 73.1 28 "NAN" -0.8 0.00
07/23 13:00 71.5 29 "NAN" -0.3 0.00
07/23 12:00 69.3 30 "NAN" 0.1 0.00
07/23 11:00 67.5 26 "NAN" 0.2 0.00
07/23 10:00 63.9 39 "NAN" 0.2 0.00
07/23 09:00 58.5 47 "NAN" -0.6 0.00
07/23 08:00 58.5 48 "NAN" 0.6 0.00
07/23 07:00 58.0 44 "NAN" -0.2 0.00
07/23 06:00 58.5 43 "NAN" -0.2 0.00
07/23 05:00 57.6 40 "NAN" 1.1 0.00
07/23 04:00 56.7 44 "NAN" 0.3 0.00
07/23 03:00 56.0 49 "NAN" 0.4 0.00
07/23 02:00 55.7 54 "NAN" -0.5 0.00
07/23 01:00 55.9 52 "NAN" 0.7 0.00
07/23 00:00 57.0 48 "NAN" 0.0 0.00
07/22 23:00 57.9 52 "NAN" 1.1 0.00
07/22 22:00 55.8 50 "NAN" -0.3 0.00
07/22 21:00 56.3 53 "NAN" 0.0 0.00
07/22 20:00 56.0 59 "NAN" 0.4 0.00
07/22 19:00 57.8 57 "NAN" 1.3 0.00
07/22 18:00 59.2 56 "NAN" 0.1 0.00
07/22 17:00 64.1 45 "NAN" 0.8 0.00
07/22 16:00 69.1 30 "NAN" -0.2 0.00
07/22 15:00 73.3 24 "NAN" -1.3 0.00
07/22 14:00 73.4 21 "NAN" -10.9 0.00
07/22 13:00 71.0 34 "NAN" -0.5 0.00
07/22 12:00 65.4 41 "NAN" 0.4 0.00
07/22 11:00 63.5 49 "NAN" 0.0 0.00
07/22 10:00 59.6 40 "NAN" 0.7 0.00
07/22 09:00 59.8 49 "NAN" 0.7 0.00
07/22 08:00 57.3 44 "NAN" 0.9 0.00
07/22 07:00 56.3 45 "NAN" 0.4 0.00
07/22 06:00 56.1 42 "NAN" 1.1 0.00
07/22 05:00 54.2 48 "NAN" 1.4 0.00
07/22 04:00 55.4 56 "NAN" 0.2 0.00
07/22 03:00 56.8 53 "NAN" -14.4 0.00
07/22 02:00 55.3 49 "NAN" -0.5 0.00
07/22 01:00 55.6 59 "NAN" -0.1 0.00
07/22 00:00 54.6 61 "NAN" 1.1 0.00
.